Newburgh, NY
on Friday, December 8, 2017

Friday
       
Previous Day Next Day
Daily Summary
 ActualAverageRecord
Temperature
Mean Temperature °F °C °F °C  
Max Temperature 33°F 1°C 40°F 4°C 55°F 12°C (1974)
Min Temperature 26°F -3°C 24°F -4°C 10°F -12°C (1989)
Degree Days
Heating Degree Days 36    
Moisture
Dew Point 21°F -6°C   
Average Humidity 65    
Maximum Humidity 80    
Minimum Humidity 52    
Precipitation
Precipitation 0.00 in / 0.00 cm in / cm in / cm ()
Wind
Wind Speed 9 mph / 14 km/h   
Max Wind Speed 63 mph / 101 km/h   
Max Gust Speed mph / km/h   
Visibility 14 miles / 23 kilometers   
Events     
Averages and records for this station are not official NWS values.
Key: T is trace of precipitation, MM is missing value
Source: NWS Daily Summary
Seasonal Weather Averages
Time(EST)TemperatureDew PointHumidity Pressure Visibility Wind DirectionWind SpeedGust SpeedPrecipitationEvents Conditions
12:45 AM 33.8°F 1.0°C 24.8°F -4.0°C 70% 29.99 in / 1015.5 hPa 10.0 miles / 16.1 kilometers WSW 9.2 mph / 14.8 km/h - N/A   Partly Cloudy
1:45 AM 33.8°F 1.0°C 24.8°F -4.0°C 70% 29.99 in / 1015.5 hPa 10.0 miles / 16.1 kilometers WSW 9.2 mph / 14.8 km/h - N/A   Partly Cloudy
2:45 AM 33.8°F 1.0°C 24.8°F -4.0°C 70% 30.02 in / 1016.5 hPa 10.0 miles / 16.1 kilometers WSW 9.2 mph / 14.8 km/h - N/A   Clear
3:45 AM 30.2°F -1.0°C 21.2°F -6.0°C 69% 30.02 in / 1016.5 hPa 10.0 miles / 16.1 kilometers WSW 9.2 mph / 14.8 km/h - N/A   Clear
4:45 AM 28.4°F -2.0°C 21.2°F -6.0°C 74% 30.04 in / 1017.2 hPa 10.0 miles / 16.1 kilometers WSW 9.2 mph / 14.8 km/h - N/A   Clear
6:45 AM 26.6°F -3.0°C 21.2°F -6.0°C 80% 30.04 in / 1017.2 hPa 15.0 miles / 24.1 kilometers Calm Calm - N/A   Partly Cloudy
7:45 AM 26.6°F -3.0°C 21.2°F -6.0°C 80% 30.06 in / 1017.8 hPa 20.0 miles / 32.2 kilometers West 5.8 mph / 9.3 km/h - N/A   Scattered Clouds
8:45 AM 30.2°F -1.0°C 21.2°F -6.0°C 69% 30.06 in / 1017.8 hPa 20.0 miles / 32.2 kilometers West 5.8 mph / 9.3 km/h - N/A   Scattered Clouds
9:45 AM 30.2°F -1.0°C 21.2°F -6.0°C 69% 30.09 in / 1018.8 hPa 20.0 miles / 32.2 kilometers SW 63.3 mph / 101.9 km/h - N/A   Mostly Cloudy
10:45 AM 32.0°F 0.0°C 21.2°F -6.0°C 64% 30.06 in / 1017.8 hPa 20.0 miles / 32.2 kilometers WSW 5.8 mph / 9.3 km/h - N/A   Mostly Cloudy
11:45 AM 32.0°F 0.0°C 21.2°F -6.0°C 64% 30.06 in / 1017.8 hPa 20.0 miles / 32.2 kilometers West 5.8 mph / 9.3 km/h - N/A   Mostly Cloudy
12:45 PM 33.8°F 1.0°C 19.4°F -7.0°C 56% 30.03 in / 1016.8 hPa 20.0 miles / 32.2 kilometers West 6.9 mph / 11.1 km/h - N/A   Mostly Cloudy
1:45 PM 33.8°F 1.0°C 17.6°F -8.0°C 52% 30.00 in / 1015.8 hPa 20.0 miles / 32.2 kilometers West 4.6 mph / 7.4 km/h - N/A   Mostly Cloudy
2:45 PM 33.8°F 1.0°C 17.6°F -8.0°C 52% 30.00 in / 1015.8 hPa 20.0 miles / 32.2 kilometers SW 5.8 mph / 9.3 km/h - N/A   Mostly Cloudy
3:45 PM 33.8°F 1.0°C 17.6°F -8.0°C 52% 30.01 in / 1016.1 hPa 20.0 miles / 32.2 kilometers WSW 6.9 mph / 11.1 km/h - N/A   Mostly Cloudy
4:45 PM 33.8°F 1.0°C 17.6°F -8.0°C 52% 30.00 in / 1015.8 hPa 10.0 miles / 16.1 kilometers WSW 6.9 mph / 11.1 km/h - N/A   Mostly Cloudy
5:45 PM 32.0°F 0.0°C 17.6°F -8.0°C 55% 30.02 in / 1016.5 hPa 10.0 miles / 16.1 kilometers WSW 6.9 mph / 11.1 km/h - N/A   Mostly Cloudy
6:45 PM 32.0°F 0.0°C 19.4°F -7.0°C 60% 30.00 in / 1015.8 hPa 10.0 miles / 16.1 kilometers West 5.8 mph / 9.3 km/h - N/A   Mostly Cloudy
7:45 PM 32.0°F 0.0°C 19.4°F -7.0°C 60% 29.99 in / 1015.5 hPa 10.0 miles / 16.1 kilometers West 6.9 mph / 11.1 km/h - N/A   Mostly Cloudy
8:45 PM 32.0°F 0.0°C 19.4°F -7.0°C 60% 29.97 in / 1014.8 hPa 10.0 miles / 16.1 kilometers WSW 5.8 mph / 9.3 km/h - N/A   Mostly Cloudy
9:45 PM 30.2°F -1.0°C 21.2°F -6.0°C 69% 29.97 in / 1014.8 hPa 10.0 miles / 16.1 kilometers WSW 5.8 mph / 9.3 km/h - N/A   Mostly Cloudy
10:45 PM 30.2°F -1.0°C 21.2°F -6.0°C 69% 29.97 in / 1014.8 hPa 10.0 miles / 16.1 kilometers WSW 6.9 mph / 11.1 km/h - N/A   Mostly Cloudy
11:45 PM 30.2°F -1.0°C 21.2°F -6.0°C 69% 29.94 in / 1013.8 hPa 10.0 miles / 16.1 kilometers WSW 5.8 mph / 9.3 km/h - N/A   Mostly Cloudy